Weather History for Wellsville, NY

Change the Weather History Date:

Monday, July 30, 2012

  Actual Average (KBFD) Record (KBFD)
Temperature  
Mean Temperature 67 °F 65 °F  
Max Temperature 81 °F 77 °F 88 °F (1999)
Min Temperature 55 °F 53 °F 40 °F (1971)
Degree Days  
Heating Degree Days 0 0  
Month to date heating degree days 1  
Since 1 June heating degree days 146  
Since 1 July heating degree days 1  
Cooling Degree Days 2 2  
Month to date cooling degree days 68  
Year to date cooling degree days 118  
Since 1 June cooling degree days 108  
Growing Degree Days 17 (Base 50)    
Moisture  
Dew Point 57 °F    
Average Humidity 64    
Maximum Humidity 90    
Minimum Humidity 46    
Precipitation  
Precipitation 0.00 in 0.13 in 0.81 in (1993)
Month to date precipitation 4.05  
Year to date precipitation 25.70  
Sea Level Pressure  
Sea Level Pressure 30.08 in    
Wind  
Wind Speed 2 mph (SSW)    
Max Wind Speed 9 mph    
Max Gust Speed -    
Visibility 10 miles    
Events      
T = Trace of Precipitation, MM = Missing Value Source: NWS Daily Summary

Daily Weather History Graph

Daily Weather History Graph

Search for Another Location

Airport:

Trip Planner

Search our weather history database for the weather conditions in past years. The results will help you decide how hot, cold, wet, or windy it might be!

Date:

Astronomy

Jul. 30, 2012 Rise Set
Actual Time 6:03 AM EDT 8:32 PM EDT
Civil Twilight 5:31 AM EDT 9:04 PM EDT
Nautical Twilight 4:52 AM EDT 9:43 PM EDT
Astronomical Twilight 4:07 AM EDT 10:27 PM EDT
Moon 6:32 PM EDT (7/30) 3:15 AM EDT (7/30)
Length of Visible Light 15h 32m
Length of Day
14h 28m
Waxing Gibbous, 92% of the Moon is Illuminated
Jul 30
Waxing Gibbous
Aug 1
Full
Aug 9
Last Quarter
Aug 17
New
Aug 24
First Quarter

Hourly Weather History & Observations

Time (EDT) Temp. Dew Point Humidity Pressure Visibility Wind Dir Wind Speed Gust Speed Precip Events Conditions
12:56 AM 61.0 °F 55.9 °F 83% 30.10 in 10.0 mi Calm Calm - N/A   Partly Cloudy
1:56 AM 60.1 °F 55.9 °F 86% 30.10 in 10.0 mi Calm Calm - N/A   Partly Cloudy
2:56 AM 59.0 °F 55.0 °F 87% 30.08 in 10.0 mi Calm Calm - N/A   Clear
3:56 AM 57.0 °F 54.0 °F 89% 30.09 in 10.0 mi Calm Calm - N/A   Clear
4:56 AM 57.9 °F 55.0 °F 90% 30.08 in 10.0 mi Calm Calm - N/A   Clear
5:56 AM 55.9 °F 51.1 °F 84% 30.10 in 10.0 mi Calm Calm - N/A   Clear
7:56 AM 64.0 °F 57.0 °F 78% 30.11 in 10.0 mi South 3.5 mph - N/A   Clear
8:56 AM 71.1 °F 59.0 °F 66% 30.11 in 10.0 mi Calm Calm - N/A   Clear
10:56 AM 77.0 °F 57.0 °F 50% 30.10 in 10.0 mi Variable 5.8 mph - N/A   Clear
11:56 AM 78.1 °F 55.9 °F 46% 30.10 in 10.0 mi WSW 9.2 mph - N/A   Mostly Cloudy
12:56 PM 79.0 °F 57.0 °F 47% 30.09 in 10.0 mi Variable 5.8 mph - N/A   Scattered Clouds
1:56 PM 79.0 °F 57.9 °F 48% 30.09 in 10.0 mi WSW 4.6 mph - N/A   Mostly Cloudy
2:56 PM 77.0 °F 57.0 °F 50% 30.09 in 10.0 mi WSW 8.1 mph - N/A   Partly Cloudy
3:56 PM 77.0 °F 59.0 °F 54% 30.08 in 10.0 mi Calm Calm - N/A   Overcast
4:56 PM 77.0 °F 60.1 °F 56% 30.07 in 10.0 mi Calm Calm - N/A   Mostly Cloudy
5:56 PM 78.1 °F 57.9 °F 50% 30.06 in 10.0 mi SW 3.5 mph - N/A   Clear
6:56 PM 78.1 °F 57.9 °F 50% 30.04 in 10.0 mi SW 5.8 mph - N/A   Clear
7:56 PM 75.0 °F 57.0 °F 53% 30.04 in 10.0 mi South 3.5 mph - N/A   Mostly Cloudy
8:56 PM 73.0 °F 55.9 °F 55% 30.04 in 10.0 mi South 4.6 mph - N/A   Clear
9:56 PM 72.0 °F 55.9 °F 57% 30.04 in 10.0 mi South 4.6 mph - N/A   Clear
10:56 PM 71.1 °F 55.9 °F 59% 30.04 in 10.0 mi South 6.9 mph - N/A   Clear
11:56 PM 70.0 °F 59.0 °F 68% 30.05 in 10.0 mi South 6.9 mph - N/A   Scattered Clouds